[[{"header":{"parameterUnit":"m.s-1","parameterCategory":2,"la1":30.2991,"la2":30.254,"lo1":-89.0895,"lo2":-89.0444,"dy":0.0017,"dx":0.0017,"nx":28,"ny":28,"refTime":"2025-04-28T03:00:00:Z","depth":"0","parameterNumber":2,"parameterNumberName":"U-component_of_CURRENTS"},"data":[0,0,0,0,0,0,0,0,0,0,0,0,0,0,0,0,0,0,0,0,0,0,0,0,0,0,0,0,0,0,0,0,0,0,0,0,0,0,0,0,0,0,0,0,0,0,0,0,0,0,0,0,0,0,0,0,0,0,0.3193,0.3194,0,0.3228,0.3228,0.3228,0.3214,0.3213,0.3213,0.3212,0.3204,0.3205,0.3205,0,0,0,0,0,0,0,0,0,0,0,0,0,0.312,0.3122,0.3193,0.3194,0.3195,0.3227,0.3228,0.3228,0.3214,0.3213,0.3213,0.3212,0.3204,0.3205,0.3205,0,0,0,0,0,0,0,0,0,0,0,0,0,0.315,0.3122,0.3193,0.3194,0.3195,0.3227,0.3228,0.3228,0.3214,0.3213,0.3213,0.3212,0.3204,0.3205,0.3205,0.3223,0,0,0.3206,0.3206,0,0,0,0,0,0,0,0,0.3148,0.3152,0.3193,0.3194,0.3195,0.3219,0.3199,0.3225,0.3214,0.3203,0.3212,0.3211,0.3208,0.3208,0.3212,0.3222,0.3222,0.3206,0.3207,0.3207,0.3207,0,0,0,0,0,0,0,0.3146,0.3151,0.3203,0.3194,0.3195,0.3195,0.3198,0.3204,0.3206,0.3204,0.3204,0.3213,0.3208,0.3212,0.3212,0.3222,0.3206,0.3207,0.3207,0.3207,0.3287,0.3288,0,0,0,0,0,0,0.315,0.3149,0.3202,0.3205,0.3173,0.3197,0.32,0.3209,0.3207,0.3207,0.3214,0.3213,0.3211,0.3211,0.3211,0.3264,0.3207,0.3207,0.3207,0.3285,0.3287,0.3289,0,0,0,0,0,0,0.3148,0.3154,0.3201,0.318,0.3186,0.3199,0.3209,0.321,0.3219,0.3216,0.3214,0.3222,0.3211,0.3211,0.3233,0.3262,0.3207,0.3208,0.3283,0.3286,0.3288,0.3349,0,0,0,0,0,0,0.3146,0.3153,0.3161,0.318,0.3188,0.3233,0.321,0.3212,0.3227,0.3225,0.3222,0.3221,0.321,0.3233,0.3233,0.3262,0.3208,0.328,0.3284,0.3287,0.3344,0.3353,0.3361,0,0,0,0,0,0.3143,0.3156,0.3161,0.3168,0.3198,0.3234,0.3238,0.3242,0.3228,0.3243,0.3243,0.3221,0.3255,0.3235,0.3235,0.3264,0.3279,0.3283,0.3287,0.3341,0.3351,0.3361,0,0,0,0,0,0,0.3127,0.3157,0.3162,0.3183,0.3214,0.3233,0.3247,0.3249,0.326,0.3255,0.3242,0.3242,0.3276,0.3265,0.3242,0.33,0.3265,0.3269,0.3306,0.3316,0.3324,0.3335,0.3208,0,0,0,0,0,0.3129,0.3147,0.3179,0.3198,0.3215,0.3232,0.3246,0.3252,0.3266,0.327,0.3269,0.3274,0.3295,0.3299,0.3312,0.3339,0.3357,0.3361,0.3369,0.3376,0.3387,0.345,0.3465,0.3303,0.3303,0.3303,0,0,0.3126,0.3148,0.3156,0.3197,0.3216,0.3247,0.3238,0.3267,0.3292,0.3268,0.3295,0.3304,0.331,0.3346,0.336,0.3338,0.3434,0.3381,0.3387,0.3395,0.3456,0.3472,0.3486,0.3306,0.3305,0.3305,0,0,0.3135,0.3154,0.3173,0.3204,0.3245,0.3261,0.3273,0.3302,0.3315,0.3347,0.3344,0.3374,0.3388,0.341,0.3419,0.3483,0.3479,0.3483,0.3528,0.3589,0.3603,0.3616,0.3665,0.3682,0.3482,0.3482,0.3483,0,0.3132,0.3162,0.3186,0.322,0.3247,0.327,0.3302,0.3326,0.3357,0.3381,0.3363,0.3425,0.3423,0.3487,0.3507,0.3502,0.3532,0.3486,0.3601,0.3613,0.3625,0.3673,0.369,0.3486,0.3486,0.3485,0.3485,0,0.316,0.3187,0.3205,0.3253,0.3287,0.3321,0.3364,0.3394,0.3407,0.3434,0.3499,0.3512,0.3548,0.3558,0.3547,0.3634,0.3628,0.3607,0.3573,0.3645,0.369,0.3707,0.3491,0.349,0.3489,0.3488,0,0,0.3137,0.3209,0.3212,0.3239,0.3308,0.3333,0.3394,0.3455,0.3502,0.3532,0.3598,0.3636,0.3648,0.3662,0.3666,0.3715,0.3816,0.3696,0.3697,0.3742,0.3954,0.3942,0.3959,0.3817,0.3821,0.3823,0.3955,0,0.315,0.3201,0.3244,0.3296,0.3326,0.3382,0.3437,0.3497,0.3553,0.3622,0.3661,0.3723,0.3688,0.3718,0.3762,0.3811,0.3863,0.3782,0.3881,0.3884,0.3862,0.3979,0.3859,0.3966,0.3971,0.3974,0.3976,0,0.3155,0.3192,0.3238,0.3317,0.3338,0.3374,0.3473,0.353,0.3641,0.3697,0.3772,0.3806,0.3892,0.3846,0.3966,0.3918,0.3942,0.397,0.3975,0.3955,0.3904,0.3895,0.3996,0.3899,0.4002,0.4,0.3998,0,0.3102,0.3183,0.3214,0.3241,0.3337,0.3371,0.3425,0.3539,0.3613,0.3752,0.3821,0.3921,0.3982,0.4038,0.4082,0.4039,0.4214,0.4156,0.4169,0.4168,0.4081,0.4067,0.4095,0.4246,0.4245,0.4245,0.4245,0,0.3086,0.3108,0.3186,0.32,0.3254,0.3335,0.3417,0.3503,0.3646,0.3737,0.3843,0.3941,0.4035,0.413,0.4146,0.4228,0.4267,0.4214,0.4218,0.4099,0.4086,0.4006,0.3948,0.425,0.4249,0.4248,0.4247,0,0.3013,0.3064,0.3104,0.3196,0.3224,0.3257,0.3395,0.3466,0.3613,0.374,0.379,0.3989,0.4129,0.4213,0.4337,0.4319,0.4282,0.4399,0.4252,0.4237,0.4132,0.4082,0.3986,0.3858,0.4443,0.4443,0.4444,0,0.2982,0.2992,0.3074,0.3104,0.3141,0.3211,0.3268,0.3426,0.3516,0.3755,0.381,0.4014,0.4144,0.435,0.4394,0.4473,0.4312,0.4379,0.4269,0.415,0.4097,0.3917,0.38,0.4179,0.4177,0.4176,0.4175,0,0.2939,0.2962,0.3005,0.3058,0.3105,0.3157,0.3249,0.3317,0.35,0.3625,0.3816,0.3952,0.4185,0.4258,0.4386,0.4401,0.4181,0.4354,0.4271,0.3945,0.371,0.358,0.4062,0.4163,0.4164,0.4165,0.4166,0.4166,0.2921,0.2939,0.3,0.3034,0.3072,0.3098,0.3108,0.3227,0.3347,0.3499,0.3706,0.3848,0.4065,0.4256,0.4248,0.4184,0.4118,0.4065,0.4033,0.3875,0.3687,0.4151,0.4227,0.4229,0.423,0.4231,0.4232,0,0.2936,0.2958,0.2984,0.3014,0.2996,0.304,0.3094,0.3085,0.3158,0.3344,0.3494,0.37,0.3827,0.3951,0.4023,0.3889,0.3678,0.3776,0.3486,0.34,0.3871,0.3795,0.373,0.373,0.373,0.373,0.373,0.373,0.2963,0.2985,0.2978,0.2938,0.2931,0.287,0.2864,0.2863,0.2948,0.305,0.3154,0.3311,0.3645,0.3872,0.3801,0.3682,0.3348,0.3223,0.317,0.3515,0.3538,0.3559,0.3474,0.3344,0.3343,0.2556,0.2551,0.2546]},{"header":{"parameterUnit":"m.s-1","parameterCategory":2,"la1":30.2991,"la2":30.254,"lo1":-89.0895,"lo2":-89.0444,"dy":0.0017,"dx":0.0017,"nx":28,"ny":28,"refTime":"2025-04-28T03:00:00:Z","depth":"0","parameterNumber":3,"parameterNumberName":"V-component_of_CURRENTS"},"data":[0,0,0,0,0,0,0,0,0,0,0,0,0,0,0,0,0,0,0,0,0,0,0,0,0,0,0,0,0,0,0,0,0,0,0,0,0,0,0,0,0,0,0,0,0,0,0,0,0,0,0,0,0,0,0,0,0,0,0.0159,0.0158,0,0.0068,0.0067,0.0066,0.0002,0.0002,0.0001,0.0001,-0.0124,-0.0127,-0.013,0,0,0,0,0,0,0,0,0,0,0,0,0,0.0219,0.0218,0.0159,0.0158,0.0157,0.0068,0.0067,0.0065,0.0002,0.0002,0.0001,0.0001,-0.0123,-0.0127,-0.013,0,0,0,0,0,0,0,0,0,0,0,0,0,0.0166,0.0218,0.0159,0.0116,0.0111,0.0068,0.0067,0.0065,0.0002,0.0002,0.0001,0.0001,-0.0122,-0.0126,-0.0131,-0.0148,0,0,-0.0144,-0.0146,0,0,0,0,0,0,0,0,0.0169,0.0163,0.0123,0.0119,0.0113,0.0047,0.0042,-0.0008,0.0002,0.0042,0.0001,0.0,-0.0068,-0.0077,-0.0095,-0.0154,-0.0159,-0.0145,-0.0148,-0.015,-0.0151,0,0,0,0,0,0,0,0.0173,0.0166,0.0121,0.0122,0.0116,0.0081,0.0073,0.0032,-0.0011,0.0038,0.0034,0.0027,-0.0072,-0.0091,-0.0099,-0.0161,-0.0145,-0.0149,-0.0152,-0.0153,-0.0241,-0.024,0,0,0,0,0,0,0.0191,0.017,0.0124,0.0119,0.0142,0.0081,0.0072,0.0068,-0.001,-0.0022,0.0027,0.0024,-0.0083,-0.0093,-0.0103,-0.0114,-0.0149,-0.0154,-0.0156,-0.0241,-0.0241,-0.024,0,0,0,0,0,0,0.0192,0.0188,0.0128,0.0143,0.0134,0.0081,0.0076,0.0066,0.0048,-0.0018,-0.0031,0.002,-0.0084,-0.0097,-0.0133,-0.012,-0.0156,-0.016,-0.0242,-0.0241,-0.024,-0.0145,0,0,0,0,0,0,0.0195,0.0189,0.0194,0.0145,0.0133,0.0113,0.0076,0.0065,0.0045,0.004,-0.0029,-0.0041,-0.0085,-0.0126,-0.0137,-0.0127,-0.0163,-0.0242,-0.0241,-0.0241,-0.0149,-0.0141,-0.0135,0,0,0,0,0,0.0197,0.021,0.0194,0.0189,0.0141,0.0114,0.0105,0.0064,0.0045,0.0044,-0.0002,-0.0039,-0.0129,-0.0129,-0.0143,-0.0133,-0.0242,-0.0242,-0.0241,-0.0152,-0.0143,-0.0135,0,0,0,0,0,0,0.0238,0.0203,0.0185,0.0187,0.0157,0.0104,0.0102,0.0071,0.0033,0.003,-0.0036,-0.0051,-0.0078,-0.0119,-0.0117,-0.0157,-0.0192,-0.0193,-0.0119,-0.0111,-0.0105,-0.0078,-0.0167,0,0,0,0,0,0.0251,0.0251,0.021,0.0211,0.0202,0.0153,0.0137,0.0111,0.007,0.0053,0.0006,-0.0044,-0.0086,-0.0107,-0.0151,-0.0172,-0.0209,-0.0175,-0.0168,-0.0162,-0.015,-0.0196,-0.0192,-0.0237,-0.0237,-0.0237,0,0,0.0266,0.0248,0.0247,0.0219,0.0194,0.0193,0.0142,0.0128,0.0125,0.0046,0.003,-0.0023,-0.0087,-0.011,-0.0126,-0.0142,-0.0168,-0.0161,-0.0155,-0.0146,-0.0194,-0.019,-0.0186,-0.0237,-0.0237,-0.0237,0,0,0.0303,0.0283,0.0298,0.0282,0.0255,0.0227,0.0228,0.0183,0.0162,0.0136,0.008,0.0041,-0.0024,-0.0063,-0.0093,-0.0075,-0.0132,-0.0091,-0.0034,-0.0078,-0.0074,-0.0071,-0.0106,-0.0107,-0.0086,-0.0086,-0.0085,0,0.0323,0.0336,0.0298,0.031,0.0308,0.025,0.0269,0.0238,0.0187,0.0179,0.0146,0.0057,0.0,-0.0028,-0.0024,-0.0058,-0.009,-0.0057,-0.0067,-0.0065,-0.0064,-0.0101,-0.0103,-0.0081,-0.0081,-0.0082,-0.0082,0,0.0371,0.0382,0.0392,0.039,0.0381,0.0389,0.0349,0.0336,0.0301,0.0269,0.0232,0.015,0.0102,0.0073,0.0027,0.0011,-0.0017,-0.0053,-0.0083,-0.0053,-0.0095,-0.0099,-0.0074,-0.0076,-0.0077,-0.0078,0,0,0.0415,0.0425,0.0429,0.0451,0.0428,0.0432,0.043,0.0416,0.043,0.036,0.0364,0.0274,0.0231,0.0193,0.0127,0.0082,0.0057,0.0027,0.0022,0.0003,-0.0033,-0.0041,-0.0047,0.0019,0.0018,0.0018,-0.0063,0,0.0466,0.0517,0.0501,0.0551,0.0578,0.0537,0.0541,0.0521,0.0495,0.0484,0.0391,0.0365,0.0276,0.0258,0.0198,0.0098,0.0049,0.0082,-0.0068,-0.0072,-0.0074,-0.0051,-0.0029,-0.0098,-0.0067,-0.0068,-0.0069,0,0.0519,0.055,0.0608,0.0645,0.0652,0.0665,0.0683,0.0685,0.0649,0.063,0.0583,0.051,0.0436,0.0353,0.0197,0.0223,0.0107,0.0017,0.0011,-0.003,-0.0087,-0.0126,-0.0108,-0.0303,-0.0076,-0.0075,-0.0075,0,0.0579,0.0628,0.0683,0.0693,0.0715,0.0732,0.0742,0.0729,0.0766,0.0731,0.0749,0.0634,0.0597,0.0433,0.0247,0.0222,0.0074,0.0013,-0.0107,-0.0109,-0.0136,-0.014,-0.0315,-0.0102,-0.0101,-0.0101,-0.0101,0,0.0641,0.0686,0.0717,0.0746,0.0821,0.0806,0.0883,0.0873,0.0895,0.0958,0.0834,0.086,0.0616,0.0498,0.0299,0.0102,0.0112,-0.0086,-0.0126,-0.0102,-0.0101,-0.0311,-0.0433,-0.0104,-0.0103,-0.0103,-0.0102,0,0.0694,0.0709,0.0784,0.0829,0.0851,0.0905,0.0993,0.1056,0.1051,0.113,0.1126,0.1043,0.0894,0.064,0.039,0.0198,-0.0128,-0.0092,-0.0039,-0.0073,-0.0371,-0.0487,-0.0723,-0.0805,-0.0237,-0.0237,-0.0238,0,0.0725,0.0768,0.0855,0.0918,0.0942,0.1029,0.1095,0.113,0.1222,0.1256,0.1313,0.1195,0.1156,0.0791,0.0422,0.0078,-0.0137,-0.0138,-0.0192,-0.0373,-0.0535,-0.063,-0.0689,-0.0196,-0.0196,-0.0196,-0.0196,0,0.0799,0.0825,0.0895,0.1025,0.1112,0.1224,0.133,0.143,0.148,0.1554,0.1643,0.1613,0.1254,0.094,0.0452,0.0195,-0.0275,-0.0151,-0.0361,-0.0528,-0.0624,-0.0724,-0.0156,-0.0197,-0.0197,-0.0197,-0.0197,-0.0197,0.0864,0.0936,0.1037,0.1159,0.1268,0.1417,0.1531,0.167,0.1834,0.1963,0.1909,0.1905,0.1399,0.0754,0.0385,-0.0276,-0.03,-0.0475,-0.0603,-0.0684,-0.076,-0.0182,-0.0256,-0.0256,-0.0256,-0.0257,-0.0257,0,0.0965,0.105,0.1172,0.1327,0.1458,0.1493,0.1691,0.1825,0.2043,0.2149,0.2227,0.1967,0.1365,0.0716,-0.0173,-0.0631,-0.0811,-0.0894,-0.1037,-0.1077,-0.0577,-0.057,-0.0688,-0.0688,-0.0688,-0.0688,-0.0688,-0.0687,0.1034,0.1171,0.1231,0.1465,0.1573,0.1758,0.1879,0.2079,0.2213,0.2372,0.2365,0.2313,0.1796,0.021,-0.0839,-0.1075,-0.1405,-0.1494,-0.1652,-0.1327,-0.1298,-0.127,-0.1292,-0.1559,-0.1561,-0.2076,-0.2081,-0.2085]}],[{"header":{"parameterUnit":"m.s-1","parameterCategory":2,"la1":30.2991,"la2":30.254,"lo1":-89.0895,"lo2":-89.0444,"dy":0.0017,"dx":0.0017,"nx":28,"ny":28,"refTime":"2025-04-28T03:00:00:Z","depth":"2","parameterNumber":2,"parameterNumberName":"U-component_of_CURRENTS"},"data":[0,0,0,0,0,0,0,0,0,0,0,0,0,0,0,0,0,0,0,0,0,0,0,0,0,0,0,0,0,0,0,0,0,0,0,0,0,0,0,0,0,0,0,0,0,0,0,0,0,0,0,0,0,0,0,0,0,0,0.2888,0.2888,0,0.293,0.293,0.2931,0.2932,0.2932,0.2932,0.2931,0.2947,0.2947,0.2948,0,0,0,0,0,0,0,0,0,0,0,0,0,0.2809,0.281,0.2888,0.2888,0.2889,0.293,0.293,0.2931,0.2932,0.2932,0.2931,0.2931,0.2947,0.2947,0.2948,0,0,0,0,0,0,0,0,0,0,0,0,0,0.2843,0.281,0.2887,0.2897,0.2899,0.293,0.293,0.2931,0.2932,0.2932,0.2931,0.2931,0.2946,0.2947,0.2948,0.296,0,0,0.2951,0.2951,0,0,0,0,0,0,0,0,0.2841,0.2845,0.2895,0.2897,0.2899,0.2928,0.2908,0.294,0.2932,0.2916,0.2931,0.2931,0.2941,0.2942,0.2946,0.2961,0.2961,0.2951,0.2951,0.2952,0.2952,0,0,0,0,0,0,0,0.2839,0.2844,0.2901,0.2896,0.2898,0.29,0.2904,0.2914,0.2926,0.2917,0.2918,0.2929,0.2941,0.2945,0.2946,0.2961,0.2951,0.2952,0.2952,0.2953,0.3043,0.3044,0,0,0,0,0,0,0.2841,0.2842,0.29,0.2903,0.2872,0.2902,0.2907,0.2916,0.2927,0.2929,0.2929,0.2929,0.2944,0.2945,0.2947,0.3009,0.2952,0.2953,0.2953,0.3041,0.3043,0.3045,0,0,0,0,0,0,0.2839,0.2845,0.2898,0.2876,0.2883,0.2904,0.2915,0.2917,0.2933,0.2936,0.2938,0.2943,0.2944,0.2946,0.2975,0.3007,0.2953,0.2954,0.3039,0.3042,0.3044,0.3102,0,0,0,0,0,0,0.2836,0.2844,0.2855,0.2876,0.2884,0.2931,0.2916,0.2919,0.2941,0.2941,0.2949,0.295,0.2944,0.2974,0.2976,0.3008,0.2955,0.3036,0.304,0.3043,0.3098,0.3106,0.3114,0,0,0,0,0,0.2833,0.2847,0.2855,0.2863,0.2897,0.2932,0.2937,0.2948,0.2942,0.2958,0.2966,0.295,0.2998,0.2976,0.2978,0.3011,0.3035,0.3039,0.3043,0.3094,0.3105,0.3114,0,0,0,0,0,0,0.2817,0.285,0.2859,0.2882,0.2913,0.2934,0.2952,0.2957,0.2976,0.2976,0.297,0.2972,0.3013,0.3006,0.2982,0.3049,0.3015,0.302,0.3053,0.3063,0.3071,0.3079,0.2955,0,0,0,0,0,0.282,0.2841,0.2874,0.2895,0.2913,0.2934,0.295,0.2961,0.298,0.2987,0.2995,0.3007,0.3031,0.3041,0.3058,0.309,0.3104,0.3114,0.3122,0.3129,0.3139,0.3195,0.3209,0.3059,0.3059,0.3059,0,0,0.2818,0.2842,0.2852,0.2894,0.2916,0.2947,0.2943,0.2976,0.3003,0.2987,0.3023,0.3037,0.3048,0.3089,0.3106,0.3086,0.3181,0.3134,0.314,0.3146,0.3201,0.3216,0.3229,0.3062,0.3061,0.3061,0,0,0.2826,0.285,0.287,0.2901,0.2946,0.2964,0.2978,0.3011,0.303,0.3068,0.307,0.3106,0.3129,0.3152,0.3164,0.3227,0.3225,0.3233,0.3276,0.3331,0.3343,0.3355,0.3397,0.3412,0.3233,0.3233,0.3233,0,0.2824,0.2856,0.2883,0.2915,0.2945,0.2974,0.3006,0.3033,0.3072,0.3098,0.3087,0.3158,0.3162,0.3226,0.3248,0.3246,0.3272,0.3235,0.3341,0.3353,0.3363,0.3404,0.3419,0.3236,0.3236,0.3236,0.3235,0,0.2849,0.2879,0.2898,0.2948,0.2982,0.3019,0.3063,0.3099,0.3122,0.315,0.322,0.324,0.3281,0.3294,0.3287,0.3372,0.3365,0.3347,0.3314,0.3382,0.342,0.3435,0.3241,0.324,0.3239,0.3238,0,0,0.2825,0.29,0.2905,0.2933,0.3005,0.303,0.3092,0.3155,0.3203,0.3243,0.3309,0.3355,0.3372,0.3388,0.3398,0.3444,0.3538,0.343,0.3431,0.3468,0.3662,0.3626,0.3638,0.3542,0.3544,0.3547,0.366,0,0.2837,0.2889,0.2932,0.2986,0.3018,0.3077,0.3132,0.3193,0.3253,0.3324,0.3368,0.3435,0.3407,0.3444,0.3485,0.3534,0.358,0.3509,0.3595,0.3597,0.3554,0.3655,0.3371,0.3445,0.3675,0.3677,0.3679,0,0.284,0.2878,0.2928,0.3008,0.3029,0.3069,0.3169,0.3226,0.3336,0.3393,0.347,0.3509,0.3596,0.3559,0.367,0.3629,0.3652,0.3677,0.3682,0.3638,0.3589,0.3415,0.3464,0.3704,0.3702,0.37,0.3698,0,0.2789,0.2871,0.2907,0.2935,0.3032,0.307,0.3127,0.3238,0.331,0.3448,0.3518,0.3614,0.3679,0.3731,0.3775,0.3738,0.3893,0.3843,0.3831,0.3828,0.3597,0.3569,0.3923,0.3923,0.3923,0.3922,0.3922,0,0.2774,0.2802,0.2884,0.2902,0.2959,0.3038,0.3122,0.3208,0.3347,0.3433,0.3542,0.3632,0.3729,0.3815,0.3831,0.3891,0.3938,0.3869,0.3869,0.361,0.3583,0.3806,0.3791,0.3926,0.3925,0.3925,0.3924,0,0.2707,0.2762,0.2806,0.2901,0.2932,0.2969,0.3106,0.3172,0.3319,0.3442,0.3495,0.3679,0.3804,0.3885,0.3996,0.3967,0.4023,0.4023,0.3714,0.3677,0.3904,0.389,0.4031,0.4031,0.4031,0.4031,0.4031,0,0.2677,0.2691,0.278,0.2806,0.2849,0.2922,0.2978,0.3137,0.3219,0.3451,0.3501,0.3693,0.3796,0.3967,0.398,0.4037,0.4064,0.3782,0.3658,0.3936,0.3922,0.3909,0.3896,0.3371,0.3366,0.3362,0.3358,0,0.2622,0.2652,0.2688,0.2745,0.2795,0.2849,0.2942,0.3004,0.3187,0.3307,0.3471,0.3585,0.3775,0.3732,0.383,0.3806,0.3753,0.3696,0.4082,0.3397,0.3326,0.3308,0.3315,0.3319,0.3323,0.3325,0.3328,0.3329,0.2578,0.259,0.2641,0.2683,0.273,0.2757,0.2767,0.2875,0.2979,0.3116,0.3311,0.3388,0.3487,0.3512,0.3436,0.338,0.3626,0.3447,0.3455,0.347,0.3382,0.3316,0.329,0.3293,0.3296,0.3299,0.3301,0,0.2529,0.2553,0.2582,0.2612,0.2599,0.2674,0.2727,0.2705,0.2753,0.2922,0.3043,0.2897,0.2925,0.3003,0.288,0.2914,0.2825,0.2779,0.2623,0.2669,0.2708,0.2573,0.2271,0.2267,0.2263,0.2259,0,0,0.2507,0.2503,0.251,0.2464,0.2488,0.2449,0.2448,0.243,0.2496,0.2506,0.2547,0.2814,0.2952,0.2569,0.2546,0.2379,0.2487,0.2291,0.3134,0.2998,0.3031,0.3133,0.2985,0,0,0,0,0]},{"header":{"parameterUnit":"m.s-1","parameterCategory":2,"la1":30.2991,"la2":30.254,"lo1":-89.0895,"lo2":-89.0444,"dy":0.0017,"dx":0.0017,"nx":28,"ny":28,"refTime":"2025-04-28T03:00:00:Z","depth":"2","parameterNumber":3,"parameterNumberName":"V-component_of_CURRENTS"},"data":[0,0,0,0,0,0,0,0,0,0,0,0,0,0,0,0,0,0,0,0,0,0,0,0,0,0,0,0,0,0,0,0,0,0,0,0,0,0,0,0,0,0,0,0,0,0,0,0,0,0,0,0,0,0,0,0,0,0,0.0059,0.0059,0,-0.0021,-0.0022,-0.0023,-0.0079,-0.0079,-0.0079,-0.0079,-0.0193,-0.0195,-0.0198,0,0,0,0,0,0,0,0,0,0,0,0,0,0.011,0.011,0.0059,0.0059,0.0058,-0.0021,-0.0022,-0.0023,-0.0079,-0.0079,-0.0079,-0.008,-0.0192,-0.0195,-0.0198,0,0,0,0,0,0,0,0,0,0,0,0,0,0.0064,0.011,0.006,0.0022,0.0018,-0.0021,-0.0022,-0.0024,-0.0078,-0.0079,-0.0079,-0.008,-0.0191,-0.0195,-0.0199,-0.0215,0,0,-0.0211,-0.0213,0,0,0,0,0,0,0,0,0.0066,0.0062,0.0028,0.0024,0.002,-0.0039,-0.0046,-0.0089,-0.0078,-0.0043,-0.0079,-0.008,-0.0143,-0.0151,-0.0167,-0.0221,-0.0226,-0.0212,-0.0214,-0.0216,-0.0217,0,0,0,0,0,0,0,0.007,0.0064,0.0026,0.0027,0.0022,-0.001,-0.0017,-0.0055,-0.0091,-0.0046,-0.005,-0.0057,-0.0146,-0.0163,-0.017,-0.0227,-0.0211,-0.0215,-0.0218,-0.0219,-0.0299,-0.0298,0,0,0,0,0,0,0.0086,0.0068,0.0029,0.0024,0.0044,-0.001,-0.0018,-0.0021,-0.0091,-0.0101,-0.0057,-0.0059,-0.0155,-0.0165,-0.0174,-0.0183,-0.0216,-0.022,-0.0222,-0.0299,-0.0299,-0.0298,0,0,0,0,0,0,0.0087,0.0083,0.0032,0.0045,0.0036,-0.001,-0.0013,-0.0022,-0.0038,-0.0098,-0.0109,-0.0063,-0.0156,-0.0168,-0.0201,-0.0188,-0.0222,-0.0225,-0.0299,-0.0299,-0.0298,-0.021,0,0,0,0,0,0,0.0089,0.0084,0.0089,0.0046,0.0036,0.0019,-0.0013,-0.0023,-0.0041,-0.0045,-0.0107,-0.0118,-0.0157,-0.0194,-0.0205,-0.0194,-0.0229,-0.03,-0.0299,-0.0299,-0.0213,-0.0206,-0.02,0,0,0,0,0,0.0091,0.0103,0.009,0.0085,0.0044,0.002,0.0012,-0.0024,-0.0041,-0.0041,-0.0083,-0.0116,-0.0197,-0.0197,-0.021,-0.02,-0.03,-0.0299,-0.0299,-0.0216,-0.0208,-0.0201,0,0,0,0,0,0,0.0127,0.0098,0.0082,0.0084,0.0058,0.0011,0.0009,-0.0017,-0.0051,-0.0054,-0.0113,-0.0127,-0.0151,-0.0188,-0.0186,-0.0222,-0.0254,-0.0255,-0.0187,-0.0179,-0.0173,-0.0149,-0.0232,0,0,0,0,0,0.0138,0.014,0.0104,0.0105,0.0098,0.0054,0.004,0.0018,-0.0018,-0.0034,-0.0076,-0.012,-0.0158,-0.0177,-0.0217,-0.0235,-0.0272,-0.0238,-0.0231,-0.0225,-0.0215,-0.0259,-0.0255,-0.0295,-0.0295,-0.0295,0,0,0.0152,0.0137,0.0136,0.0113,0.0091,0.0091,0.0045,0.0034,0.0032,-0.004,-0.0053,-0.0101,-0.0159,-0.0179,-0.0193,-0.0207,-0.0234,-0.0224,-0.0219,-0.0211,-0.0258,-0.0254,-0.025,-0.0295,-0.0295,-0.0295,0,0,0.0185,0.0169,0.0183,0.017,0.0147,0.0122,0.0123,0.0084,0.0065,0.0043,-0.0007,-0.0042,-0.0101,-0.0135,-0.0163,-0.0145,-0.02,-0.016,-0.0106,-0.0149,-0.0146,-0.0144,-0.0183,-0.0185,-0.0154,-0.0154,-0.0154,0,0.0203,0.0217,0.0183,0.0195,0.0195,0.0143,0.0162,0.0135,0.009,0.0082,0.0052,-0.0028,-0.0078,-0.0103,-0.0098,-0.0129,-0.0162,-0.0128,-0.0139,-0.0138,-0.0137,-0.0178,-0.0181,-0.015,-0.015,-0.0151,-0.0151,0,0.0247,0.0259,0.0268,0.0269,0.0263,0.027,0.0236,0.0225,0.0194,0.0165,0.0132,0.0059,0.0015,-0.0011,-0.0051,-0.0067,-0.0095,-0.0126,-0.0154,-0.0127,-0.0173,-0.0177,-0.0143,-0.0145,-0.0146,-0.0147,0,0,0.0285,0.0298,0.0302,0.0323,0.0306,0.031,0.031,0.0299,0.0311,0.0249,0.025,0.0173,0.0133,0.0099,0.0039,-0.0002,-0.003,-0.0053,-0.0057,-0.0082,-0.0122,-0.0137,-0.0144,-0.0063,-0.0064,-0.0064,-0.0154,0,0.0331,0.0381,0.0369,0.0417,0.0443,0.0408,0.0413,0.0395,0.0371,0.0359,0.0275,0.0252,0.0174,0.0158,0.0103,0.0008,-0.0039,-0.0002,-0.0152,-0.0156,-0.0165,-0.0149,-0.0118,-0.0196,-0.016,-0.0161,-0.0161,0,0.038,0.041,0.0466,0.0502,0.051,0.0524,0.0541,0.0544,0.0508,0.0489,0.0446,0.038,0.0312,0.024,0.0091,0.0119,0.001,-0.0074,-0.008,-0.0127,-0.018,-0.0219,-0.0207,-0.017,-0.0169,-0.0169,-0.0168,0,0.0433,0.0481,0.0534,0.0545,0.0567,0.0585,0.0595,0.0583,0.0614,0.058,0.0594,0.0488,0.0449,0.03,0.0127,0.0109,-0.0041,-0.0091,-0.021,-0.0213,-0.0232,-0.0236,-0.02,-0.0199,-0.0199,-0.0199,-0.0199,0,0.0489,0.0532,0.0564,0.0593,0.0661,0.0651,0.0718,0.0711,0.0726,0.0776,0.0671,0.0682,0.0463,0.0348,0.0169,-0.0023,-0.0011,-0.0194,-0.0234,-0.0201,-0.02,-0.0216,-0.0216,-0.0202,-0.0202,-0.0201,-0.02,0,0.0537,0.0554,0.0624,0.0667,0.0688,0.0738,0.0815,0.0868,0.0864,0.0926,0.0923,0.0835,0.0688,0.0461,0.0224,0.0051,-0.0144,-0.0221,-0.0163,-0.0195,-0.0303,-0.0298,-0.0365,-0.0366,-0.0367,-0.0368,-0.0369,0,0.0564,0.0603,0.0686,0.074,0.0763,0.0841,0.0899,0.0932,0.1007,0.1028,0.1069,0.0951,0.0892,0.0544,0.0219,-0.0094,-0.0141,-0.0277,-0.0312,-0.0286,-0.0319,-0.0312,-0.0306,-0.0308,-0.0309,-0.0309,-0.0309,0,0.0616,0.0643,0.0703,0.0817,0.0894,0.0997,0.1087,0.1167,0.121,0.1264,0.131,0.1264,0.0938,0.0635,0.0204,-0.001,-0.0226,-0.029,-0.0276,-0.0264,-0.0238,-0.0268,-0.0263,-0.031,-0.031,-0.031,-0.031,-0.031,0.0653,0.071,0.0791,0.0901,0.1002,0.1128,0.1224,0.1329,0.1449,0.1532,0.149,0.1437,0.1078,0.0545,0.0165,-0.0236,-0.0226,-0.0371,-0.0368,-0.0366,-0.0336,-0.0312,-0.0393,-0.0393,-0.0394,-0.0394,-0.0394,0,0.0696,0.0765,0.0871,0.1001,0.1115,0.1168,0.1335,0.1426,0.1572,0.1656,0.1694,0.1371,0.103,0.0619,0.0026,-0.033,-0.0358,-0.0439,-0.0398,-0.0394,-0.0391,-0.0361,-0.0426,-0.0427,-0.0428,-0.0429,0,0,0.0718,0.0817,0.0873,0.1059,0.1166,0.1334,0.1436,0.1568,0.1667,0.1742,0.1736,0.1679,0.1173,0.0744,0.0253,-0.0087,-0.0156,-0.0152,-0.0089,0.0021,0.0028,-0.0316,-0.026,0,0,0,0,0]}],[{"header":{"parameterUnit":"m.s-1","parameterCategory":2,"la1":30.2991,"la2":30.254,"lo1":-89.0895,"lo2":-89.0444,"dy":0.0017,"dx":0.0017,"nx":28,"ny":28,"refTime":"2025-04-28T03:00:00:Z","depth":"4","parameterNumber":2,"parameterNumberName":"U-component_of_CURRENTS"},"data":[0,0,0,0,0,0,0,0,0,0,0,0,0,0,0,0,0,0,0,0,0,0,0,0,0,0,0,0,0,0,0,0,0,0,0,0,0,0,0,0,0,0,0,0,0,0,0,0,0,0,0,0,0,0,0,0,0,0,0.1912,0.1913,0,0.1996,0.1997,0.1998,0.2062,0.2063,0.2064,0.2065,0.2162,0.2164,0.2166,0,0,0,0,0,0,0,0,0,0,0,0,0,0.18,0.1802,0.1912,0.1914,0.1915,0.1996,0.1997,0.1998,0.2062,0.2063,0.2064,0.2065,0.2162,0.2164,0.2166,0,0,0,0,0,0,0,0,0,0,0,0,0,0.1861,0.1802,0.1912,0.1958,0.1964,0.1996,0.1997,0.1998,0.2062,0.2063,0.2065,0.2066,0.2161,0.2164,0.2166,0.2158,0,0,0.2175,0.2176,0,0,0,0,0,0,0,0,0.1857,0.1864,0.195,0.1955,0.1961,0.2022,0.1993,0.2053,0.2062,0.2022,0.2065,0.2066,0.2117,0.2124,0.2133,0.2163,0.2167,0.2175,0.2177,0.2178,0.2179,0,0,0,0,0,0,0,0.1853,0.1861,0.1943,0.1952,0.1958,0.1973,0.1982,0.2005,0.206,0.2026,0.2031,0.2044,0.212,0.213,0.2136,0.2168,0.2175,0.2177,0.2179,0.218,0.2326,0.2328,0,0,0,0,0,0,0.1847,0.1857,0.194,0.1946,0.1914,0.1974,0.1985,0.1999,0.206,0.2071,0.2043,0.2047,0.2125,0.2133,0.214,0.2249,0.2178,0.218,0.2182,0.2324,0.2326,0.2329,0,0,0,0,0,0,0.1844,0.1853,0.1937,0.1905,0.1917,0.1975,0.1991,0.2,0.2053,0.2073,0.2084,0.209,0.2126,0.2136,0.2201,0.2249,0.2182,0.2184,0.2321,0.2325,0.2328,0.2393,0,0,0,0,0,0,0.184,0.1852,0.1879,0.1905,0.1919,0.1985,0.199,0.2001,0.2057,0.2064,0.2116,0.2124,0.2128,0.2197,0.2204,0.2251,0.2186,0.2318,0.2323,0.2327,0.2388,0.2399,0.2407,0,0,0,0,0,0.1836,0.186,0.188,0.1891,0.1948,0.1987,0.1996,0.2038,0.2058,0.2088,0.2128,0.2125,0.2229,0.2201,0.2208,0.2258,0.2316,0.2321,0.2326,0.2384,0.2397,0.2407,0,0,0,0,0,0,0.1827,0.187,0.1892,0.1931,0.1971,0.1999,0.2037,0.206,0.2114,0.2134,0.2149,0.216,0.2237,0.2238,0.2207,0.2314,0.2273,0.228,0.2315,0.2327,0.2336,0.2334,0.2189,0,0,0,0,0,0.1837,0.1872,0.191,0.1947,0.197,0.2011,0.204,0.207,0.211,0.2137,0.2173,0.2215,0.2255,0.2285,0.2317,0.2371,0.2377,0.241,0.2419,0.2427,0.2432,0.2484,0.2499,0.2345,0.2345,0.2345,0,0,0.1844,0.1875,0.1896,0.1949,0.1986,0.2024,0.2033,0.209,0.2132,0.2138,0.222,0.2252,0.2278,0.2343,0.2378,0.2356,0.2476,0.2434,0.244,0.2441,0.2491,0.2506,0.2519,0.2349,0.2348,0.2348,0,0,0.1861,0.1907,0.1937,0.1975,0.2038,0.2062,0.2087,0.2142,0.2185,0.2254,0.2275,0.2337,0.2396,0.2426,0.2445,0.2525,0.2525,0.2546,0.2593,0.2644,0.2657,0.2668,0.2699,0.2712,0.255,0.255,0.255,0,0.1873,0.1915,0.1954,0.1992,0.2031,0.2083,0.2125,0.2169,0.2242,0.2282,0.2294,0.2408,0.2432,0.2508,0.2541,0.2547,0.2571,0.2545,0.2656,0.2667,0.2677,0.2706,0.2719,0.2554,0.2553,0.2553,0.2552,0,0.1899,0.1951,0.1976,0.2042,0.2086,0.2137,0.2194,0.2257,0.2314,0.2354,0.2458,0.25,0.2565,0.259,0.2591,0.2685,0.2676,0.266,0.2622,0.2696,0.2722,0.2735,0.2559,0.2558,0.2556,0.2556,0,0,0.1877,0.1976,0.1989,0.203,0.2122,0.2153,0.2238,0.2318,0.2383,0.2462,0.2546,0.2623,0.2658,0.2683,0.2706,0.2753,0.2847,0.2747,0.2748,0.2769,0.296,0.2782,0.2779,0.2859,0.2861,0.2864,0.2949,0,0.1893,0.1963,0.2016,0.2095,0.2135,0.2215,0.2285,0.2367,0.2448,0.2542,0.2608,0.2699,0.269,0.2746,0.2791,0.2842,0.2886,0.2825,0.2892,0.2894,0.2719,0.2789,0.2872,0.2959,0.2962,0.2964,0.2966,0,0.1892,0.1945,0.202,0.2125,0.2153,0.2213,0.234,0.2411,0.2543,0.2615,0.2713,0.277,0.2873,0.285,0.2962,0.293,0.2954,0.2976,0.298,0.2796,0.2739,0.287,0.2989,0.2987,0.2986,0.2984,0.2983,0,0.1834,0.1944,0.2007,0.2043,0.2168,0.2231,0.2308,0.2437,0.2516,0.2677,0.2755,0.2868,0.2951,0.3003,0.3053,0.3029,0.3158,0.3122,0.2979,0.2967,0.3071,0.3058,0.3193,0.3193,0.3193,0.3193,0.3193,0,0.1807,0.1862,0.1992,0.2024,0.2112,0.2211,0.2322,0.2421,0.2573,0.2659,0.2792,0.2871,0.2999,0.3079,0.3097,0.3076,0.3194,0.2996,0.298,0.3097,0.3087,0.308,0.3066,0.3196,0.3195,0.3195,0.3194,0,0.1727,0.1816,0.1893,0.2036,0.2087,0.2149,0.2321,0.2392,0.2556,0.2677,0.2739,0.2915,0.3013,0.3104,0.3204,0.3115,0.3126,0.3087,0.3219,0.3208,0.2888,0.2877,0.2926,0.292,0.2916,0.2912,0.2908,0,0.1688,0.1721,0.1879,0.1927,0.2001,0.2114,0.2187,0.2366,0.244,0.2667,0.2704,0.2879,0.2966,0.2964,0.307,0.3097,0.306,0.3038,0.2942,0.2883,0.2864,0.286,0.2855,0.2901,0.29,0.2898,0.2897,0,0.1608,0.1683,0.1746,0.1845,0.1932,0.2013,0.2133,0.2174,0.2366,0.2539,0.2614,0.2676,0.2781,0.2849,0.29,0.2907,0.3035,0.2988,0.2997,0.2907,0.2853,0.2838,0.2839,0.2881,0.2883,0.2885,0.2886,0,0.155,0.1572,0.1664,0.1737,0.184,0.1877,0.1957,0.204,0.2137,0.2381,0.2399,0.2579,0.2747,0.2752,0.2795,0.2797,0.2747,0.2642,0.2667,0.2686,0.2568,0.2462,0.2364,0,0,0,0,0,0.1478,0.1486,0.1545,0.1611,0.1707,0.1764,0.1903,0.1985,0.2168,0.2162,0.2276,0.236,0.2435,0.2535,0.249,0.2689,0.2756,0.2624,0.2647,0.2791,0.281,0.2692,0,0,0,0,0,0,0.1424,0.1474,0.1495,0.1491,0.1512,0.1594,0.1673,0.1796,0.1804,0.2003,0.2062,0.2214,0.233,0.2438,0.2444,0.2473,0.2438,0.2744,0.2738,0.2781,0.2798,0.2813,0.2698,0,0,0,0,0]},{"header":{"parameterUnit":"m.s-1","parameterCategory":2,"la1":30.2991,"la2":30.254,"lo1":-89.0895,"lo2":-89.0444,"dy":0.0017,"dx":0.0017,"nx":28,"ny":28,"refTime":"2025-04-28T03:00:00:Z","depth":"4","parameterNumber":3,"parameterNumberName":"V-component_of_CURRENTS"},"data":[0,0,0,0,0,0,0,0,0,0,0,0,0,0,0,0,0,0,0,0,0,0,0,0,0,0,0,0,0,0,0,0,0,0,0,0,0,0,0,0,0,0,0,0,0,0,0,0,0,0,0,0,0,0,0,0,0,0,0.0042,0.0042,0,-0.0013,-0.0014,-0.0015,-0.0054,-0.0054,-0.0054,-0.0055,-0.0144,-0.0146,-0.0148,0,0,0,0,0,0,0,0,0,0,0,0,0,0.0074,0.0074,0.0042,0.0042,0.0041,-0.0013,-0.0014,-0.0015,-0.0054,-0.0054,-0.0055,-0.0055,-0.0143,-0.0145,-0.0148,0,0,0,0,0,0,0,0,0,0,0,0,0,0.0043,0.0074,0.0043,0.0016,0.0013,-0.0013,-0.0014,-0.0015,-0.0054,-0.0054,-0.0055,-0.0055,-0.0142,-0.0145,-0.0148,-0.0161,0,0,-0.0158,-0.016,0,0,0,0,0,0,0,0,0.0045,0.0042,0.002,0.0018,0.0014,-0.0026,-0.0035,-0.0065,-0.0054,-0.0029,-0.0055,-0.0055,-0.0107,-0.0113,-0.0123,-0.0165,-0.0169,-0.0158,-0.016,-0.0162,-0.0163,0,0,0,0,0,0,0,0.0047,0.0044,0.002,0.002,0.0016,-0.0007,-0.0012,-0.0041,-0.0067,-0.0032,-0.0034,-0.0039,-0.0109,-0.012,-0.0126,-0.017,-0.0158,-0.0161,-0.0163,-0.0164,-0.0229,-0.0229,0,0,0,0,0,0,0.0058,0.0046,0.0021,0.0018,0.003,-0.0007,-0.0012,-0.0014,-0.0066,-0.0073,-0.0039,-0.0041,-0.0114,-0.0122,-0.0129,-0.0136,-0.0162,-0.0165,-0.0167,-0.0229,-0.0229,-0.0229,0,0,0,0,0,0,0.0059,0.0057,0.0024,0.0031,0.0025,-0.0007,-0.0008,-0.0014,-0.0026,-0.0071,-0.0079,-0.0044,-0.0115,-0.0124,-0.015,-0.014,-0.0166,-0.0169,-0.023,-0.0229,-0.0229,-0.0158,0,0,0,0,0,0,0.0061,0.0058,0.0061,0.0032,0.0025,0.0015,-0.0008,-0.0015,-0.0028,-0.0031,-0.0078,-0.0087,-0.0116,-0.0145,-0.0153,-0.0145,-0.0172,-0.023,-0.023,-0.0229,-0.0161,-0.0155,-0.0151,0,0,0,0,0,0.0062,0.0071,0.0062,0.0059,0.0032,0.0016,0.0011,-0.0015,-0.0028,-0.0028,-0.0059,-0.0085,-0.0149,-0.0147,-0.0157,-0.015,-0.023,-0.023,-0.0229,-0.0163,-0.0156,-0.0151,0,0,0,0,0,0,0.0086,0.0067,0.0057,0.0059,0.0042,0.001,0.0009,-0.0011,-0.0036,-0.0038,-0.0083,-0.0094,-0.0114,-0.0142,-0.014,-0.0168,-0.0194,-0.0195,-0.014,-0.0134,-0.0129,-0.0109,-0.0174,0,0,0,0,0,0.0094,0.0097,0.0073,0.0075,0.007,0.004,0.003,0.0014,-0.0012,-0.0024,-0.0056,-0.009,-0.0119,-0.0134,-0.0165,-0.0179,-0.0211,-0.0182,-0.0177,-0.0172,-0.0163,-0.0204,-0.0201,-0.0227,-0.0227,-0.0227,0,0,0.0104,0.0094,0.0095,0.008,0.0065,0.0068,0.0033,0.0026,0.0026,-0.003,-0.0038,-0.0075,-0.012,-0.0136,-0.0147,-0.0158,-0.0182,-0.0172,-0.0167,-0.0161,-0.0203,-0.02,-0.0198,-0.0227,-0.0227,-0.0227,0,0,0.0128,0.0118,0.013,0.0122,0.0106,0.009,0.009,0.0063,0.005,0.0034,-0.0004,-0.0032,-0.0077,-0.0103,-0.0123,-0.0111,-0.0156,-0.0123,-0.008,-0.0119,-0.0117,-0.0115,-0.0151,-0.0153,-0.0118,-0.0118,-0.0118,0,0.0141,0.0153,0.013,0.0141,0.0143,0.0105,0.0121,0.0102,0.007,0.0065,0.0041,-0.0021,-0.0059,-0.0078,-0.0073,-0.0098,-0.0128,-0.0096,-0.0111,-0.011,-0.011,-0.0147,-0.0151,-0.0115,-0.0115,-0.0116,-0.0116,0,0.0173,0.0185,0.0193,0.0197,0.0195,0.0202,0.018,0.0172,0.015,0.013,0.0103,0.0047,0.0013,-0.0007,-0.0037,-0.0051,-0.0076,-0.0101,-0.0122,-0.0103,-0.0144,-0.0149,-0.011,-0.0111,-0.0112,-0.0113,0,0,0.0198,0.0214,0.0218,0.0237,0.0229,0.0234,0.0237,0.0232,0.0242,0.0195,0.0196,0.0138,0.0106,0.0081,0.0034,-0.0001,-0.0028,-0.0043,-0.0046,-0.007,-0.0113,-0.0122,-0.0129,-0.0057,-0.0058,-0.0058,-0.0141,0,0.0232,0.0273,0.0268,0.0309,0.0331,0.0309,0.0317,0.0307,0.029,0.0281,0.0216,0.0197,0.014,0.0126,0.0081,0.0001,-0.0038,-0.0003,-0.0135,-0.0138,-0.0143,-0.0134,-0.0059,-0.0145,-0.0146,-0.0147,-0.0148,0,0.0266,0.0292,0.034,0.0374,0.0382,0.0398,0.0417,0.0422,0.0397,0.0382,0.0349,0.0296,0.0241,0.0186,0.006,0.0085,-0.0003,-0.0073,-0.0079,-0.0113,-0.0157,-0.0171,-0.0157,-0.0157,-0.0156,-0.0155,-0.0155,0,0.03,0.0344,0.0388,0.04,0.0426,0.0445,0.0458,0.0454,0.0478,0.0453,0.0461,0.0377,0.0341,0.0221,0.0078,0.0069,-0.0068,-0.0101,-0.0195,-0.0197,-0.0195,-0.0196,-0.0191,-0.0191,-0.0191,-0.0191,-0.019,0,0.0336,0.0373,0.0411,0.0435,0.0494,0.0494,0.0552,0.055,0.0563,0.0598,0.0521,0.0516,0.0348,0.0247,0.0106,-0.0053,-0.0049,-0.0183,-0.0217,-0.0164,-0.016,-0.0199,-0.0199,-0.0194,-0.0193,-0.0193,-0.0192,0,0.0361,0.0383,0.0443,0.0489,0.0512,0.0554,0.0625,0.0665,0.0668,0.0709,0.0707,0.0625,0.0491,0.0316,0.0118,-0.0005,-0.0164,-0.0225,-0.0145,-0.0175,-0.0276,-0.0272,-0.0335,-0.0336,-0.0337,-0.0337,-0.0338,0,0.0374,0.0406,0.0487,0.0532,0.0558,0.0627,0.0676,0.0713,0.0762,0.0774,0.0792,0.0688,0.0605,0.0334,0.0134,-0.0134,-0.0181,-0.0267,-0.0282,-0.0263,-0.029,-0.0284,-0.0278,-0.0339,-0.0339,-0.034,-0.034,0,0.0397,0.0427,0.0477,0.0571,0.0639,0.0725,0.0798,0.0844,0.0882,0.0894,0.0869,0.0727,0.0573,0.0345,0.0138,-0.0059,-0.0212,-0.0277,-0.0277,-0.0292,-0.0269,-0.0294,-0.0287,-0.0343,-0.0342,-0.0342,-0.0342,0,0.0411,0.0451,0.0517,0.0602,0.0696,0.0783,0.0827,0.088,0.0928,0.0939,0.0928,0.0762,0.067,0.0384,0.0194,0.0,-0.0062,-0.0136,-0.0145,-0.0144,-0.0073,-0.0015,-0.0033,0,0,0,0,0,0.0418,0.046,0.054,0.0633,0.0733,0.0788,0.0888,0.0925,0.0968,0.0964,0.0952,0.081,0.0532,0.0416,0.0222,0.0149,-0.0113,-0.0089,-0.0208,-0.0358,-0.0355,-0.0305,0,0,0,0,0,0,0.0417,0.0486,0.0531,0.0644,0.0714,0.0824,0.0891,0.0924,0.0925,0.094,0.0804,0.0746,0.0482,0.0644,0.0214,0.0155,0.0049,-0.0211,-0.0216,-0.036,-0.0357,-0.0355,-0.0302,0,0,0,0,0]}]]